Weather History for KBKV - November, 2012

Change the Weather History Date:

Monday, November 5, 2012

  Actual Average Record
Temperature  
Mean Temperature 68 °F -  
Max Temperature 80 °F 77 °F 86 °F (2003)
Min Temperature 55 °F 52 °F 39 °F (2007)
Cooling Degree Days 4    
Growing Degree Days 18 (Base 50)    
Moisture  
Dew Point 59 °F    
Average Humidity 88    
Maximum Humidity 100    
Minimum Humidity 42    
Precipitation  
Precipitation 0.00 in - - ()
Sea Level Pressure  
Sea Level Pressure 30.00 in    
Wind  
Wind Speed 1 mph (WNW)    
Max Wind Speed 13 mph    
Max Gust Speed 17 mph    
Visibility 5 miles    
Events Fog    
Averages and records for this station are not official NWS values.
T = Trace of Precipitation, MM = Missing Value Source: NWS Daily Summary

Daily Weather History Graph

Daily Weather History Graph

Search for Another Location

Airport or City:

Trip Planner

Search our weather history database for the weather conditions in past years. The results will help you decide how hot, cold, wet, or windy it might be!

Date:

Astronomy

Nov. 05, 2012 Rise Set
Actual Time 6:44 AM EST 5:41 PM EST
Civil Twilight 6:20 AM EST 6:06 PM EST
Nautical Twilight 5:52 AM EST 6:34 PM EST
Astronomical Twilight 5:24 AM EST 7:01 PM EST
Moon 11:17 PM EST (11/5) 12:02 PM EST (11/5)
Length of Visible Light 11h 45m
Length of Day
10h 56m
Waning Gibbous, 63% of the Moon is Illuminated
Nov 5
Waning Gibbous
Nov 6
Last Quarter
Nov 13
New
Nov 20
First Quarter
Nov 28
Full

Hourly Weather History & Observations

Time (EST) Temp. Heat Index Dew Point Humidity Pressure Visibility Wind Dir Wind Speed Gust Speed Precip Events Conditions
12:10 AM 62.6 °F - 62.6 °F 100% 30.03 in 1.8 mi Calm Calm - N/A   Overcast
12:17 AM 62.6 °F - 62.6 °F 100% 30.03 in 2.5 mi Calm Calm - N/A   Overcast
12:24 AM 62.6 °F - 62.6 °F 100% 30.03 in 1.5 mi Calm Calm - N/A   Overcast
12:37 AM 62.6 °F - 62.6 °F 100% 30.03 in 0.5 mi Calm Calm - N/A Fog Fog
12:53 AM 63.0 °F - 63.0 °F 100% 30.03 in 0.2 mi Calm Calm - N/A Fog Fog
1:53 AM 63.0 °F - 62.1 °F 97% 30.01 in 0.2 mi Calm Calm - N/A Fog Fog
2:53 AM 60.1 °F - 60.1 °F 100% 30.00 in 0.2 mi Calm Calm - N/A Fog Fog
3:41 AM 59.0 °F - 59.0 °F 100% 30.00 in 1.2 mi Calm Calm - N/A   Mostly Cloudy
3:53 AM 60.1 °F - 59.0 °F 96% 30.00 in 2.0 mi Calm Calm - N/A   Mostly Cloudy
4:07 AM 59.0 °F - 59.0 °F 100% 30.00 in 0.8 mi Calm Calm - N/A   Mist
4:21 AM 60.8 °F - 59.0 °F 94% 30.01 in 1.8 mi Calm Calm - N/A   Overcast
4:23 AM 60.8 °F - 59.0 °F 94% 30.01 in 3.0 mi Calm Calm - N/A   Mostly Cloudy
4:40 AM 59.0 °F - 59.0 °F 100% 30.00 in 6.0 mi Calm Calm - N/A   Partly Cloudy
4:53 AM 60.1 °F - 60.1 °F 100% 30.00 in 6.0 mi Calm Calm - N/A   Clear
5:21 AM 59.0 °F - 59.0 °F 100% 30.01 in 1.5 mi Calm Calm - N/A   Clear
5:29 AM 57.2 °F - 57.2 °F 100% 30.01 in 0.5 mi Calm Calm - N/A Fog Fog
5:36 AM 57.2 °F - 57.2 °F 100% 30.01 in 0.8 mi Calm Calm - N/A   Mist
5:39 AM 59.0 °F - 59.0 °F 100% 30.01 in 1.0 mi Calm Calm - N/A   Clear
5:53 AM 59.0 °F - 59.0 °F 100% 30.00 in 1.0 mi Calm Calm - N/A   Partly Cloudy
6:08 AM 57.2 °F - 57.2 °F 100% 30.01 in 3.0 mi Calm Calm - N/A   Partly Cloudy
6:15 AM 57.2 °F - 57.2 °F 100% 30.01 in 1.8 mi Calm Calm - N/A   Partly Cloudy
6:25 AM 57.2 °F - 57.2 °F 100% 30.01 in 3.0 mi Calm Calm - N/A   Clear
6:45 AM 57.2 °F - 57.2 °F 100% 30.01 in 3.0 mi Calm Calm - N/A   Scattered Clouds
6:51 AM 57.2 °F - 57.2 °F 100% 30.01 in 2.5 mi Calm Calm - N/A   Mostly Cloudy
7:02 AM 59.0 °F - 59.0 °F 100% 30.02 in 0.5 mi South 3.5 mph - N/A   Mostly Cloudy
7:12 AM 59.0 °F - 59.0 °F 100% 30.02 in 0.5 mi Calm Calm - N/A   Scattered Clouds
7:41 AM 62.6 °F - 60.8 °F 94% 30.02 in 5.0 mi Calm Calm - N/A   Clear
7:53 AM 63.0 °F - 63.0 °F 100% 30.02 in 5.0 mi Calm Calm - N/A   Clear
8:53 AM 70.0 °F - 66.9 °F 90% 30.02 in 10.0 mi NW 5.8 mph - N/A   Clear
9:53 AM 73.0 °F - 62.1 °F 68% 30.02 in 10.0 mi NNW 5.8 mph - N/A   Clear
10:53 AM 77.0 °F - 59.0 °F 54% 30.01 in 10.0 mi NW 8.1 mph - N/A   Clear
11:53 AM 79.0 °F - 55.9 °F 45% 30.00 in 10.0 mi WNW 12.7 mph 16.1 mph N/A   Clear
12:53 PM 80.1 °F 80.1 °F 55.0 °F 42% 29.97 in 10.0 mi NW 8.1 mph - N/A   Clear
1:53 PM 77.0 °F - 54.0 °F 45% 29.96 in 10.0 mi WNW 10.4 mph 17.3 mph N/A   Clear
2:53 PM 75.9 °F - 55.0 °F 48% 29.95 in 10.0 mi WNW 10.4 mph - N/A   Clear
3:53 PM 73.0 °F - 55.0 °F 53% 29.95 in 10.0 mi WNW 9.2 mph - N/A   Clear
4:53 PM 70.0 °F - 54.0 °F 57% 29.96 in 10.0 mi West 3.5 mph - N/A   Clear
5:53 PM 66.0 °F - 55.9 °F 70% 29.96 in 10.0 mi West 4.6 mph - N/A   Clear
6:53 PM 62.1 °F - 55.9 °F 80% 29.97 in 10.0 mi Calm Calm - N/A   Mostly Cloudy
7:53 PM 62.1 °F - 57.0 °F 84% 29.98 in 10.0 mi Calm Calm - N/A   Clear
8:53 PM 59.0 °F - 55.9 °F 90% 30.00 in 10.0 mi Calm Calm - N/A   Clear
9:53 PM 61.0 °F - 57.0 °F 87% 29.99 in 10.0 mi Calm Calm - N/A   Clear
10:53 PM 59.0 °F - 57.0 °F 93% 29.99 in 10.0 mi East 5.8 mph - N/A   Clear
11:53 PM 55.9 °F - 55.0 °F 97% 29.96 in 5.0 mi Calm Calm - N/A   Clear